timestamp,wind_dir_avg,wind_spd_max_dir,wind_spd_avg,wind_spd_gust,battery_voltage,lat,long
2018-03-09 00:00:00+00:00,84.0,85.0,8.6,11.05,,47.59359,-54.27349
2018-03-09 00:10:00+00:00,86.0,87.0,7.26,8.85,,47.59359,-54.27349
2018-03-09 00:20:00+00:00,87.0,92.0,8.06,9.44,,47.59359,-54.27349
2018-03-09 00:30:00+00:00,84.0,91.0,8.79,11.31,,47.59359,-54.27349
2018-03-09 00:40:00+00:00,81.0,84.0,8.3,10.83,,47.59359,-54.27349
2018-03-09 00:50:00+00:00,86.0,90.0,8.39,12.49,,47.59359,-54.27349
2018-03-09 01:00:00+00:00,85.0,87.0,7.3,8.69,,47.59359,-54.27349
2018-03-09 01:10:00+00:00,90.0,91.0,5.97,10.24,,47.59359,-54.27349
2018-03-09 01:20:00+00:00,83.0,75.0,8.09,9.22,,47.59359,-54.27349
2018-03-09 01:30:00+00:00,84.0,87.0,8.86,14.29,,47.59359,-54.27349
2018-03-09 01:40:00+00:00,86.0,87.0,6.28,8.18,,47.59359,-54.27349
2018-03-09 01:50:00+00:00,84.0,85.0,8.03,8.93,,47.59359,-54.27349
2018-03-09 02:00:00+00:00,84.0,85.0,7.45,8.38,,47.59359,-54.27349
2018-03-09 02:10:00+00:00,84.0,84.0,7.12,7.7,,47.59359,-54.27349
2018-03-09 02:20:00+00:00,83.0,79.0,6.52,8.41,,47.59359,-54.27349
2018-03-09 02:30:00+00:00,84.0,82.0,7.54,8.46,,47.59359,-54.27349
2018-03-09 02:40:00+00:00,83.0,84.0,6.93,8.17,,47.59359,-54.27349
2018-03-09 02:50:00+00:00,85.0,93.0,7.31,8.15,,47.59359,-54.27349
2018-03-09 03:00:00+00:00,85.0,87.0,8.3,10.43,,47.59359,-54.27349
2018-03-09 03:10:00+00:00,82.0,82.0,7.2,7.85,,47.59359,-54.27349
2018-03-09 03:20:00+00:00,80.0,84.0,7.25,8.35,,47.59359,-54.27349
2018-03-09 03:30:00+00:00,85.0,84.0,7.4,8.87,,47.59359,-54.27349
2018-03-09 03:40:00+00:00,84.0,87.0,7.43,8.72,,47.59359,-54.27349
2018-03-09 03:50:00+00:00,87.0,80.0,6.43,7.92,,47.59359,-54.27349
2018-03-09 04:00:00+00:00,88.0,89.0,6.24,7.36,,47.59359,-54.27349
2018-03-09 04:10:00+00:00,85.0,85.0,7.31,8.6,,47.59359,-54.27349
2018-03-09 04:20:00+00:00,90.0,86.0,5.6,7.11,,47.59359,-54.27349
2018-03-09 04:30:00+00:00,84.0,85.0,6.67,7.55,,47.59359,-54.27349
2018-03-09 04:40:00+00:00,86.0,79.0,6.15,7.44,,47.59359,-54.27349
2018-03-09 04:50:00+00:00,90.0,96.0,5.14,7.53,,47.59359,-54.27349
2018-03-09 05:00:00+00:00,86.0,89.0,5.46,7.06,,47.59359,-54.27349
2018-03-09 05:10:00+00:00,88.0,92.0,5.06,6.51,,47.59359,-54.27349
2018-03-09 05:20:00+00:00,92.0,86.0,5.01,6.54,,47.59359,-54.27349
2018-03-09 05:30:00+00:00,91.0,78.0,5.58,7.17,,47.59359,-54.27349
2018-03-09 05:40:00+00:00,85.0,75.0,8.05,9.11,,47.59359,-54.27349
2018-03-09 05:50:00+00:00,91.0,102.0,4.94,7.21,,47.59359,-54.27349
2018-03-09 06:00:00+00:00,85.0,85.0,4.91,7.05,,47.59359,-54.27349
2018-03-09 06:10:00+00:00,90.0,84.0,6.05,8.41,,47.59359,-54.27349
2018-03-09 06:20:00+00:00,92.0,90.0,5.2,6.85,,47.59359,-54.27349
2018-03-09 06:30:00+00:00,91.0,86.0,4.95,7.21,,47.59359,-54.27349
2018-03-09 06:40:00+00:00,90.0,92.0,6.51,8.2,,47.59359,-54.27349
2018-03-09 06:50:00+00:00,90.0,87.0,6.04,8.82,,47.59359,-54.27349
2018-03-09 07:00:00+00:00,86.0,86.0,6.38,7.86,,47.59359,-54.27349
2018-03-09 07:10:00+00:00,98.0,99.0,2.66,4.17,,47.59359,-54.27349
2018-03-09 07:20:00+00:00,86.0,76.0,5.06,6.93,,47.59359,-54.27349
2018-03-09 07:30:00+00:00,86.0,83.0,6.11,7.62,,47.59359,-54.27349
2018-03-09 07:40:00+00:00,99.0,98.0,4.88,6.85,,47.59359,-54.27349
2018-03-09 07:50:00+00:00,90.0,88.0,5.28,6.96,,47.59359,-54.27349
2018-03-09 08:00:00+00:00,89.0,84.0,6.72,8.78,,47.59359,-54.27349
2018-03-09 08:10:00+00:00,83.0,72.0,6.05,7.75,,47.59359,-54.27349
2018-03-09 08:20:00+00:00,91.0,84.0,6.23,8.95,,47.59359,-54.27349
2018-03-09 08:30:00+00:00,88.0,87.0,6.46,13.46,,47.59359,-54.27349
2018-03-09 08:40:00+00:00,88.0,81.0,5.53,7.41,,47.59359,-54.27349
2018-03-09 08:50:00+00:00,91.0,71.0,5.39,7.99,,47.59359,-54.27349
2018-03-09 09:00:00+00:00,91.0,83.0,5.68,7.53,,47.59359,-54.27349
2018-03-09 09:10:00+00:00,86.0,85.0,7.31,9.02,,47.59359,-54.27349
2018-03-09 09:20:00+00:00,89.0,85.0,7.4,9.19,,47.59359,-54.27349
2018-03-09 09:30:00+00:00,87.0,86.0,6.67,8.01,,47.59359,-54.27349
2018-03-09 09:40:00+00:00,90.0,86.0,6.81,9.04,,47.59359,-54.27349
2018-03-09 09:50:00+00:00,81.0,77.0,8.43,9.43,,47.59359,-54.27349
2018-03-09 10:00:00+00:00,83.0,91.0,8.13,9.24,,47.59359,-54.27349
2018-03-09 10:10:00+00:00,79.0,79.0,9.12,12.69,,47.59359,-54.27349
2018-03-09 10:20:00+00:00,82.0,82.0,10.8,14.44,,47.59359,-54.27349
2018-03-09 10:30:00+00:00,78.0,75.0,7.92,8.84,,47.59359,-54.27349
2018-03-09 10:40:00+00:00,82.0,86.0,7.43,8.44,,47.59359,-54.27349
2018-03-09 10:50:00+00:00,79.0,84.0,7.73,8.91,,47.59359,-54.27349
2018-03-09 11:00:00+00:00,82.0,82.0,9.03,10.21,,47.59359,-54.27349
2018-03-09 11:10:00+00:00,79.0,85.0,8.76,9.79,,47.59359,-54.27349
2018-03-09 11:20:00+00:00,86.0,84.0,7.4,8.98,,47.59359,-54.27349
2018-03-09 11:30:00+00:00,83.0,83.0,7.15,8.42,,47.59359,-54.27349
2018-03-09 11:40:00+00:00,80.0,80.0,7.44,9.35,,47.59359,-54.27349
2018-03-09 11:50:00+00:00,86.0,87.0,8.24,9.55,,47.59359,-54.27349
2018-03-09 12:00:00+00:00,81.0,79.0,9.37,10.96,,47.59359,-54.27349
2018-03-09 12:10:00+00:00,80.0,80.0,9.84,12.09,,47.59359,-54.27349
2018-03-09 12:20:00+00:00,84.0,79.0,9.24,10.31,,47.59359,-54.27349
2018-03-09 12:30:00+00:00,85.0,87.0,7.57,9.73,,47.59359,-54.27349
2018-03-09 12:40:00+00:00,87.0,88.0,7.91,10.71,,47.59359,-54.27349
2018-03-09 12:50:00+00:00,84.0,85.0,8.97,11.67,,47.59359,-54.27349
2018-03-09 13:00:00+00:00,86.0,84.0,6.69,9.09,,47.59359,-54.27349
2018-03-09 13:10:00+00:00,82.0,82.0,7.39,8.4,,47.59359,-54.27349
2018-03-09 13:20:00+00:00,81.0,78.0,7.85,9.48,,47.59359,-54.27349
2018-03-09 13:30:00+00:00,79.0,78.0,8.97,10.22,,47.59359,-54.27349
2018-03-09 13:40:00+00:00,77.0,70.0,6.85,8.24,,47.59359,-54.27349
2018-03-09 13:50:00+00:00,81.0,84.0,7.32,8.29,,47.59359,-54.27349
2018-03-09 14:00:00+00:00,80.0,84.0,7.84,9.3,,47.59359,-54.27349
2018-03-09 14:10:00+00:00,77.0,83.0,8.08,11.93,,47.59359,-54.27349
2018-03-09 14:20:00+00:00,83.0,82.0,8.13,9.24,,47.59359,-54.27349
2018-03-09 14:30:00+00:00,81.0,80.0,8.94,10.69,,47.59359,-54.27349
2018-03-09 14:40:00+00:00,86.0,81.0,8.03,13.4,,47.59359,-54.27349
2018-03-09 14:50:00+00:00,84.0,86.0,6.63,9.87,,47.59359,-54.27349
2018-03-09 15:00:00+00:00,108.0,106.0,5.03,7.31,,47.59359,-54.27349
2018-03-09 15:10:00+00:00,111.0,127.0,6.13,9.31,,47.59359,-54.27349
2018-03-09 15:20:00+00:00,108.0,139.0,4.96,8.67,,47.59359,-54.27349
2018-03-09 15:30:00+00:00,85.0,85.0,6.32,8.32,,47.59359,-54.27349
2018-03-09 15:40:00+00:00,89.0,81.0,5.42,7.05,,47.59359,-54.27349
2018-03-09 15:50:00+00:00,91.0,74.0,6.33,8.27,,47.59359,-54.27349
2018-03-09 16:00:00+00:00,95.0,107.0,6.44,11.48,,47.59359,-54.27349
2018-03-09 16:10:00+00:00,86.0,85.0,9.17,12.23,,47.59359,-54.27349
2018-03-09 16:20:00+00:00,85.0,90.0,8.41,12.15,,47.59359,-54.27349
2018-03-09 16:30:00+00:00,89.0,83.0,8.71,11.81,,47.59359,-54.27349
2018-03-09 16:40:00+00:00,79.0,76.0,9.57,12.93,,47.59359,-54.27349
2018-03-09 16:50:00+00:00,85.0,84.0,9.15,10.93,,47.59359,-54.27349
2018-03-09 17:00:00+00:00,83.0,85.0,10.25,12.11,,47.59359,-54.27349
2018-03-09 17:10:00+00:00,83.0,83.0,10.14,11.34,,47.59359,-54.27349
2018-03-09 17:20:00+00:00,84.0,80.0,9.28,11.3,,47.59359,-54.27349
2018-03-09 17:30:00+00:00,85.0,81.0,9.0,12.11,,47.59359,-54.27349
2018-03-09 17:40:00+00:00,84.0,79.0,8.53,10.51,,47.59359,-54.27349
2018-03-09 17:50:00+00:00,78.0,76.0,8.7,9.56,,47.59359,-54.27349
2018-03-09 18:00:00+00:00,79.0,85.0,9.32,10.65,,47.59359,-54.27349
2018-03-09 18:10:00+00:00,77.0,72.0,8.93,10.99,,47.59359,-54.27349
2018-03-09 18:20:00+00:00,78.0,77.0,10.01,11.63,,47.59359,-54.27349
2018-03-09 18:30:00+00:00,78.0,80.0,10.91,12.31,,47.59359,-54.27349
2018-03-09 18:40:00+00:00,82.0,77.0,10.43,12.18,,47.59359,-54.27349
2018-03-09 18:50:00+00:00,80.0,79.0,11.75,13.1,,47.59359,-54.27349
2018-03-09 19:00:00+00:00,81.0,84.0,11.19,13.44,,47.59359,-54.27349
2018-03-09 19:10:00+00:00,90.0,86.0,7.05,9.28,,47.59359,-54.27349
2018-03-09 19:20:00+00:00,82.0,82.0,11.0,12.89,,47.59359,-54.27349
2018-03-09 19:30:00+00:00,83.0,85.0,10.73,12.97,,47.59359,-54.27349
2018-03-09 19:40:00+00:00,84.0,80.0,11.92,14.01,,47.59359,-54.27349
2018-03-09 19:50:00+00:00,83.0,84.0,11.85,13.92,,47.59359,-54.27349
2018-03-09 20:00:00+00:00,80.0,82.0,10.77,13.01,,47.59359,-54.27349
2018-03-09 20:10:00+00:00,81.0,83.0,11.06,12.26,,47.59359,-54.27349
2018-03-09 20:20:00+00:00,82.0,83.0,10.04,12.31,,47.59359,-54.27349
2018-03-09 20:30:00+00:00,85.0,79.0,9.21,11.67,,47.59359,-54.27349
2018-03-09 20:40:00+00:00,85.0,82.0,11.08,12.7,,47.59359,-54.27349
2018-03-09 20:50:00+00:00,83.0,83.0,10.46,12.84,,47.59359,-54.27349
2018-03-09 21:00:00+00:00,84.0,79.0,10.7,13.0,,47.59359,-54.27349
2018-03-09 21:10:00+00:00,84.0,77.0,9.9,14.51,,47.59359,-54.27349
2018-03-09 21:20:00+00:00,91.0,78.0,9.24,13.46,,47.59359,-54.27349
2018-03-09 21:30:00+00:00,94.0,85.0,8.54,13.19,,47.59359,-54.27349
2018-03-09 21:40:00+00:00,89.0,97.0,6.71,9.14,,47.59359,-54.27349
2018-03-09 21:50:00+00:00,90.0,91.0,5.86,7.84,,47.59359,-54.27349
2018-03-09 22:00:00+00:00,87.0,88.0,8.13,13.19,,47.59359,-54.27349
2018-03-09 22:10:00+00:00,86.0,81.0,10.26,14.5,,47.59359,-54.27349
2018-03-09 22:20:00+00:00,89.0,80.0,11.19,15.38,,47.59359,-54.27349
2018-03-09 22:30:00+00:00,86.0,84.0,10.97,15.19,,47.59359,-54.27349
2018-03-09 22:40:00+00:00,85.0,78.0,9.55,15.02,,47.59359,-54.27349
2018-03-09 22:50:00+00:00,87.0,84.0,10.3,14.77,,47.59359,-54.27349
2018-03-09 23:00:00+00:00,86.0,76.0,10.57,15.35,,47.59359,-54.27349
2018-03-09 23:10:00+00:00,85.0,82.0,10.29,14.87,,47.59359,-54.27349
2018-03-09 23:20:00+00:00,86.0,87.0,11.48,14.72,,47.59359,-54.27349
2018-03-09 23:30:00+00:00,85.0,83.0,12.43,14.73,,47.59359,-54.27349
2018-03-09 23:40:00+00:00,86.0,83.0,12.38,15.11,,47.59359,-54.27349
2018-03-09 23:50:00+00:00,87.0,81.0,11.69,14.5,,47.59359,-54.27349
